This is the latest recevied weather packets stored in our database for station/object N3SBK. If no packets are shown the sender has not sent any weather packets the latest 10 day(s).
| Time | Temp. | Humidity | Pressure | Rain* | Wind** | Luminosity | Snow |
|---|---|---|---|---|---|---|---|
| 1777585859 | 7.78° C | 76% | 1004.4 hPa | 0 mm | - | 75 W/m² | - |
| 1777585558 | 7.78° C | 76% | 1004.4 hPa | 0 mm | - | 41 W/m² | - |
| 1777585255 | 7.78° C | 78% | 1004.3 hPa | 0 mm | - | 36 W/m² | - |
| 1777584949 | 7.78° C | 78% | 1004.3 hPa | 0 mm | - | 40 W/m² | - |
| 1777584647 | 7.22° C | 78% | 1004.5 hPa | 0 mm | - | 43 W/m² | - |
| 1777584344 | 7.22° C | 78% | 1004.2 hPa | 0 mm | - | 57 W/m² | - |
| 1777584040 | 7.22° C | 79% | 1004.2 hPa | 0 mm | - | 25 W/m² | - |
| 1777583740 | 7.22° C | 80% | 1004.1 hPa | 0 mm | - | 21 W/m² | - |
| 1777583439 | 7.22° C | 80% | 1004 hPa | 0 mm | - | 18 W/m² | - |
| 1777583139 | 7.22° C | 80% | 1004 hPa | 0 mm | - | 14 W/m² | - |
| 1777582835 | 7.22° C | 80% | 1003.9 hPa | 0 mm | - | 37 W/m² | - |
| 1777582532 | 7.22° C | 79% | 1004.2 hPa | 0 mm | - | 41 W/m² | - |
| 1777582227 | 7.22° C | 78% | 1004 hPa | 0 mm | - | 83 W/m² | - |
| 1777581925 | 7.22° C | 79% | 1004.1 hPa | 0 mm | - | 74 W/m² | - |
| 1777581620 | 7.22° C | 81% | 1004.2 hPa | 0 mm | - | 54 W/m² | - |
| 1777581315 | 7.22° C | 80% | 1004.2 hPa | 0 mm | - | 63 W/m² | - |
| 1777581010 | 7.22° C | 80% | 1004.2 hPa | 0 mm | - | 60 W/m² | - |
| 1777580709 | 7.22° C | 79% | 1004.1 hPa | 0 mm | - | 76 W/m² | - |
| 1777580405 | 7.22° C | 81% | 1003.9 hPa | 0 mm | - | 81 W/m² | - |
| 1777580101 | 6.67° C | 81% | 1003.9 hPa | 0 mm | - | 91 W/m² | - |
| 1777579798 | 6.67° C | 83% | 1003.8 hPa | 0 mm | - | 63 W/m² | - |
| 1777579496 | 6.67° C | 83% | 1003.9 hPa | 0 mm | - | 45 W/m² | - |
| 1777579191 | 6.67° C | 84% | 1003.9 hPa | 0 mm | - | 30 W/m² | - |
| 1777578886 | 6.67° C | 82% | 1003.8 hPa | 0 mm | - | 32 W/m² | - |
| 1777578577 | 6.67° C | 81% | 1004 hPa | 0 mm | - | 32 W/m² | - |
* Rain latest hour (hover to see other rain measurements)
** Current wind speed in m/s (hover to see current wind gust speed)